Content
SEND FEEDBACK

Daily
Averages
Monthly
Summary
Philippines

QUEZON CITY, PHILIPPINES


Home > Asia > Philippines
Elevation: 46 meters     Latitude: 14 39N     Longitude: 121 03E

WEATHER
 
SELECT A DAY
Number of Records: 172,573;   Date Range: 7/1/96 - 8/12/14
 
SHARE

PRINT THIS DATA

[ ← Previous Day ]
WEATHER ALMANAC - 18 SEPTEMBER, 2013
[ Next Day → ]
[ °F ]   °C
Weather ElementAverageHighLow
Temperature27.1 °C30 °C (11:00 am)25 °C (1:00 am)
Dewpoint25.4 °C27 °C (10:00 am)24 °C (1:44 pm)
Humidity90.6 %100 % (1:00 am)78 % (2:00 pm)
Barometer1006.4 hPa1008.5 hPa (11:00 pm)1004.1 hPa (3:00 pm)
Wind Speed13.4 km/h37 km/h (6:00 pm)
Weather ElementAverage
Visibility9.2 km
Wind DirectionSSW (203.7 °)

Weather ElementTotal
Precipitation---
Cooling Degree Days9.2 (Base 18.3)
Growing Degree Days17.5 (Base 10)
Averaged from 31 records on 18 September, 2013
WEATHER CONDITIONS BREAKOUT
WIND DIRECTION BREAKOUT
WEATHER BY HOUR - 18 SEPTEMBER, 2013
[ °F ]   °C
Local TimeTemperatureDewpointHumidityBarometerVisibilityWind DirectionWind SpeedGust SpeedPrecipitationEventsConditions
1:00 AM25 °C25 °C100 %1006.1 hPa8 kmWNW (300°)5.6 km/hRainLight Rain
2:00 AM25.6 °C25.6 °C100 %1006.8 hPa9.7 kmWest (260°)7.2 km/hRainLight Rain
2:00 AM26 °C26 °C100 %1006.1 hPa9 kmVariable3.7 km/hOvercast
3:00 AM25 °C25 °C100 %1006.1 hPa9 kmVariable3.7 km/hOvercast
4:00 AM25 °C25 °C100 %1006.1 hPa9 kmCalmOvercast
5:00 AM25 °C24.4 °C96 %1006.1 hPa8 kmCalmRainLight Rain
5:00 AM25 °C25 °C100 %1006.1 hPa8 kmCalmRainLight Rain
6:00 AM25 °C25 °C100 %1006.1 hPa8 kmCalmMostly Cloudy
7:00 AM26 °C25 °C94 %1006.1 hPa10 kmCalmMostly Cloudy
8:00 AM27.8 °C25 °C82 %1007.8 hPa9.7 kmSW (220°)7.2 km/hHaze
8:00 AM28 °C25 °C84 %1007.1 hPa10 kmSW (220°)5.6 km/hMostly Cloudy
9:00 AM28 °C26 °C89 %1007.1 hPa10 kmWest (260°)13 km/hMostly Cloudy
10:00 AM29 °C27 °C89 %1007.1 hPa10 kmWest (280°)16.7 km/hMostly Cloudy
11:00 AM30 °C26 °C79 %1007.1 hPa10 kmWest (260°)22.2 km/hMostly Cloudy
12:00 PM29 °C26 °C84 %1006.1 hPa10 kmWest (260°)22.2 km/hScattered Clouds
1:00 PM30 °C26 °C79 %1005.1 hPa10 kmWest (260°)22.2 km/hScattered Clouds
1:44 PM27 °C24 °C84 %1005.1 hPa10 kmWSW (250°)29.6 km/hRainLight Rain Showers
2:00 PM27.8 °C24.4 °C78 %1005.4 hPa9.7 kmWSW (250°)21.6 km/hRainLight Rain Showers
2:00 PM27 °C25 °C89 %1005.1 hPa10 kmWSW (250°)24.1 km/hMostly Cloudy
3:00 PM29 °C27 °C89 %1004.1 hPa10 kmWest (260°)24.1 km/hMostly Cloudy
4:00 PM29 °C26 °C84 %1004.1 hPa10 kmWSW (250°)22.2 km/hMostly Cloudy
5:00 PM28.9 °C26.1 °C81 %1005.1 hPa9.7 kmWest (260°)18 km/hHaze
5:00 PM29 °C26 °C84 %1005.1 hPa10 kmWest (260°)20.4 km/hMostly Cloudy
6:00 PM25 °C25 °C100 %1006.1 hPa8 kmWest (260°)37 km/hRain-ThunderstormLight Thunderstorms and Rain
7:00 PM27 °C25 °C89 %1006.1 hPa8 kmWest (270°)24.1 km/hRain-ThunderstormLight Thunderstorms and Rain
8:00 PM26.7 °C25.6 °C93 %1007.5 hPa8 kmNW (320°)7.2 km/hRainLight Rain
8:00 PM26 °C26 °C100 %1007.1 hPa8 kmSSW (210°)7.4 km/hRainLight Rain
9:00 PM27 °C26 °C94 %1007.1 hPa8 kmNNE (20°)7.4 km/hOvercast
10:00 PM27 °C26 °C94 %1007.1 hPa8 kmNNW (330°)11.1 km/hScattered Clouds
11:00 PM26.7 °C24.4 °C84 %1008.5 hPa9.7 kmWNW (300°)14.3 km/hHaze
11:00 PM27 °C25 °C89 %1008.1 hPa10 kmWNW (300°)14.8 km/hOvercast
Hourly data recorded from RPLL, located 0 kilometers away from Quezon City, Philippines







STORIES FROM OUR PARTNERS